Weather History for Orlando International, FL

Change the Weather History Date:

Tuesday, February 4, 2014

  Actual Average Record
Temperature  
Mean Temperature 77 °F 62 °F  
Max Temperature 87 °F 73 °F 87 °F (2014)
Min Temperature 66 °F 51 °F 22 °F (1917)
Degree Days  
Heating Degree Days 0 5  
Month to date heating degree days 0 20  
Since 1 July heating degree days 291 404  
Cooling Degree Days 12 2  
Month to date cooling degree days 36 8  
Year to date cooling degree days 81 53  
Growing Degree Days 26 (Base 50)    
Moisture  
Dew Point 65 °F    
Average Humidity 70    
Maximum Humidity 93    
Minimum Humidity 46    
Precipitation  
Precipitation 0.01 in 0.08 in 1.01 in (1960)
Month to date precipitation 0.22 0.34  
Year to date precipitation 3.14 2.69  
Sea Level Pressure  
Sea Level Pressure 30.09 in    
Wind  
Wind Speed 6 mph (SE)    
Max Wind Speed 14 mph    
Max Gust Speed 18 mph    
Visibility 7 miles    
Events Fog , Rain    
T = Trace of Precipitation, MM = Missing Value Source: NWS Daily Summary

Daily Weather History Graph

Daily Weather History Graph

Search for Another Location

Airport:

Trip Planner

Search our weather history database for the weather conditions in past years. The results will help you decide how hot, cold, wet, or windy it might be!

Date:

Astronomy

Feb. 04, 2014 Rise Set
Actual Time 7:11 AM EST 6:07 PM EST
Civil Twilight 6:46 AM EST 6:31 PM EST
Nautical Twilight 6:18 AM EST 7:00 PM EST
Astronomical Twilight 5:50 AM EST 7:27 PM EST
Moon 10:18 AM EST (2/4) 11:26 PM EST (2/4)
Length of Visible Light 11h 45m
Length of Day
10h 56m
Waxing Crescent, 29% of the Moon is Illuminated
Feb 4
Waxing Crescent
Feb 6
First Quarter
Feb 14
Full
Feb 22
Last Quarter
Mar 1
New

Hourly Weather History & Observations

Time (EST) Temp. Heat Index Dew Point Humidity Pressure Visibility Wind Dir Wind Speed Gust Speed Precip Events Conditions
12:36 AM 69.8 °F - 62.6 °F 78% 30.10 in 10.0 mi Calm Calm - N/A   Mostly Cloudy
12:48 AM 66.2 °F - 62.6 °F 88% 30.09 in 10.0 mi Calm Calm - N/A   Mostly Cloudy
12:53 AM 68.0 °F - 63.0 °F 84% 30.09 in 10.0 mi Calm Calm - N/A   Mostly Cloudy
1:38 AM 68.0 °F - 62.6 °F 83% 30.09 in 10.0 mi Calm Calm - N/A   Partly Cloudy
1:53 AM 68.0 °F - 63.0 °F 84% 30.09 in 10.0 mi Calm Calm - N/A   Partly Cloudy
2:53 AM 66.0 °F - 62.1 °F 87% 30.08 in 10.0 mi Calm Calm - N/A   Mostly Cloudy
3:48 AM 66.2 °F - 62.6 °F 88% 30.08 in 10.0 mi NNE 3.5 mph - N/A   Mostly Cloudy
3:53 AM 66.0 °F - 63.0 °F 90% 30.08 in 10.0 mi ENE 3.5 mph - N/A   Mostly Cloudy
4:06 AM 66.2 °F - 64.4 °F 94% 30.08 in 10.0 mi ESE 3.5 mph - N/A   Overcast
4:18 AM 66.2 °F - 64.4 °F 94% 30.09 in 0.5 mi SE 3.5 mph - N/A Fog Patches of Fog
4:53 AM 68.0 °F - 66.0 °F 93% 30.08 in 4.0 mi ESE 4.6 mph - N/A   Mostly Cloudy
5:53 AM 66.9 °F - 64.9 °F 93% 30.10 in 10.0 mi Variable 3.5 mph - N/A   Scattered Clouds
6:46 AM 68.0 °F - 66.2 °F 94% 30.11 in 2.0 mi ESE 4.6 mph - N/A   Partly Cloudy
6:53 AM 66.9 °F - 64.9 °F 93% 30.11 in 2.0 mi SE 5.8 mph - N/A   Partly Cloudy
7:13 AM 66.2 °F - 64.4 °F 94% 30.11 in 1.0 mi SSE 4.6 mph - N/A   Partly Cloudy
7:19 AM 66.2 °F - 64.4 °F 94% 30.11 in 1.5 mi SSE 4.6 mph - N/A   Partly Cloudy
7:28 AM 68.0 °F - 66.2 °F 94% 30.11 in 2.0 mi SE 5.8 mph - N/A   Mostly Cloudy
7:35 AM 68.0 °F - 66.2 °F 94% 30.12 in 1.2 mi SE 5.8 mph - N/A   Overcast
7:53 AM 68.0 °F - 66.0 °F 93% 30.12 in 0.5 mi Calm Calm - N/A   Overcast
8:06 AM 68.0 °F - 66.2 °F 94% 30.12 in 0.2 mi South 3.5 mph - N/A Fog Fog
8:36 AM 69.8 °F - 66.2 °F 88% 30.13 in 0.2 mi South 4.6 mph - N/A Fog Fog
8:39 AM 69.8 °F - 66.2 °F 88% 30.13 in 0.2 mi South 3.5 mph - N/A Fog Fog
8:42 AM 69.8 °F - 66.2 °F 88% 30.13 in 0.5 mi South 4.6 mph - N/A Fog Fog
8:53 AM 69.1 °F - 66.9 °F 93% 30.13 in 0.5 mi South 6.9 mph - N/A   Mostly Cloudy
9:19 AM 69.8 °F - 66.2 °F 88% 30.14 in 2.0 mi South 5.8 mph - N/A   Scattered Clouds
9:39 AM 69.8 °F - 68.0 °F 94% 30.14 in 10.0 mi South 5.8 mph - N/A   Partly Cloudy
9:53 AM 71.1 °F - 68.0 °F 90% 30.14 in 10.0 mi South 8.1 mph - N/A   Partly Cloudy
10:53 AM 79.0 °F - 66.0 °F 64% 30.14 in 10.0 mi SSE 10.4 mph - N/A   Scattered Clouds
11:53 AM 81.0 °F 83.3 °F 66.9 °F 62% 30.12 in 10.0 mi South 9.2 mph - N/A   Scattered Clouds
12:53 PM 79.0 °F - 68.0 °F 69% 30.09 in 9.0 mi South 4.6 mph - 0.00 in Rain Light Rain
1:53 PM 82.0 °F 84.5 °F 66.9 °F 60% 30.05 in 10.0 mi South 8.1 mph - 0.01 in   Mostly Cloudy
2:53 PM 87.1 °F 88.9 °F 64.9 °F 48% 30.03 in 10.0 mi SE 4.6 mph - N/A   Mostly Cloudy
3:53 PM 84.9 °F 86.1 °F 64.0 °F 49% 30.03 in 10.0 mi ESE 10.4 mph - N/A   Scattered Clouds
4:53 PM 82.9 °F 84.4 °F 64.0 °F 53% 30.03 in 10.0 mi SE 5.8 mph - N/A   Scattered Clouds
5:53 PM 79.0 °F - 68.0 °F 69% 30.04 in 10.0 mi ESE 12.7 mph - 0.00 in Rain Light Rain
6:53 PM 75.9 °F - 68.0 °F 76% 30.05 in 10.0 mi ESE 10.4 mph - 0.00 in   Partly Cloudy
7:53 PM 75.0 °F - 66.0 °F 73% 30.06 in 10.0 mi SE 6.9 mph - N/A   Partly Cloudy
8:53 PM 73.0 °F - 66.0 °F 79% 30.08 in 10.0 mi SE 8.1 mph - N/A   Partly Cloudy
9:53 PM 73.0 °F - 66.0 °F 79% 30.09 in 10.0 mi SE 9.2 mph - N/A   Clear
10:53 PM 72.0 °F - 66.0 °F 81% 30.09 in 10.0 mi SSE 6.9 mph - N/A   Clear
11:53 PM 70.0 °F - 64.9 °F 84% 30.08 in 10.0 mi South 6.9 mph - N/A   Clear